Weather History for Leesburg, FL

Change the Weather History Date:

Tuesday, February 14, 2012

  Actual Average Record
Temperature  
Mean Temperature 62 °F -  
Max Temperature 78 °F 69 °F 84 °F (1959)
Min Temperature 46 °F 44 °F 30 °F (1968)
Degree Days  
Heating Degree Days 3    
Growing Degree Days 12 (Base 50)    
Moisture  
Dew Point 50 °F    
Average Humidity 62    
Maximum Humidity 86    
Minimum Humidity 37    
Precipitation  
Precipitation 0.00 in - - ()
Sea Level Pressure  
Sea Level Pressure 30.10 in    
Wind  
Wind Speed 5 mph (SSW)    
Max Wind Speed 14 mph    
Max Gust Speed 20 mph    
Visibility 10 miles    
Events      
Averages and records for this station are not official NWS values.
T = Trace of Precipitation, MM = Missing Value Source: NWS Daily Summary

Daily Weather History Graph

Daily Weather History Graph

Search for Another Location

Airport:

Trip Planner

Search our weather history database for the weather conditions in past years. The results will help you decide how hot, cold, wet, or windy it might be!

Date:

Astronomy

Feb. 14, 2012 Rise Set
Actual Time 7:06 AM EST 6:16 PM EST
Civil Twilight 6:42 AM EST 6:40 PM EST
Nautical Twilight 6:14 AM EST 7:08 PM EST
Astronomical Twilight 5:47 AM EST 7:35 PM EST
Moon 12:40 AM EST (2/14) 11:32 AM EST (2/14)
Length of Visible Light 11h 57m
Length of Day
11h 09m
Waning Gibbous, 50% of the Moon is Illuminated
Feb 14
Waning Gibbous
Feb 14
Last Quarter
Feb 21
New
Feb 29
First Quarter
Mar 8
Full

Hourly Weather History & Observations

Time (EST) Temp. Dew Point Humidity Pressure Visibility Wind Dir Wind Speed Gust Speed Precip Events Conditions
12:53 AM 46.9 °F 42.1 °F 83% 30.14 in 10.0 mi Calm Calm - N/A   Clear
1:53 AM 46.9 °F 43.0 °F 86% 30.12 in 10.0 mi ESE 3.5 mph - N/A   Clear
2:53 AM 53.1 °F 46.9 °F 80% 30.11 in 10.0 mi Calm Calm - N/A   Clear
3:53 AM 53.1 °F 46.9 °F 80% 30.10 in 10.0 mi SE 3.5 mph - N/A   Clear
4:53 AM 54.0 °F 46.9 °F 77% 30.09 in 10.0 mi SSE 4.6 mph - N/A   Clear
5:53 AM 54.0 °F 48.0 °F 80% 30.08 in 10.0 mi SSE 4.6 mph - N/A   Clear
6:53 AM 55.0 °F 48.0 °F 77% 30.12 in 10.0 mi South 6.9 mph - N/A   Clear
7:53 AM 55.0 °F 48.0 °F 77% 30.13 in 10.0 mi SE 3.5 mph - N/A   Clear
8:53 AM 60.1 °F 48.9 °F 67% 30.14 in 10.0 mi SSE 4.6 mph - N/A   Clear
9:53 AM 64.9 °F 48.9 °F 56% 30.15 in 10.0 mi SSE 4.6 mph - N/A   Clear
10:53 AM 71.1 °F 46.9 °F 42% 30.15 in 10.0 mi South 10.4 mph - N/A   Partly Cloudy
11:53 AM 73.9 °F 48.9 °F 41% 30.13 in 10.0 mi SSW 8.1 mph - N/A   Mostly Cloudy
12:53 PM 75.0 °F 50.0 °F 41% 30.09 in 10.0 mi SSW 10.4 mph - N/A   Clear
1:53 PM 75.9 °F 50.0 °F 40% 30.06 in 10.0 mi WSW 13.8 mph 19.6 mph N/A   Scattered Clouds
2:53 PM 78.1 °F 50.0 °F 37% 30.05 in 10.0 mi WSW 9.2 mph - N/A   Partly Cloudy
3:53 PM 77.0 °F 50.0 °F 39% 30.05 in 10.0 mi SW 11.5 mph - N/A   Partly Cloudy
4:53 PM 75.9 °F 51.1 °F 42% 30.06 in 10.0 mi SW 10.4 mph - N/A   Clear
5:53 PM 73.0 °F 53.1 °F 49% 30.08 in 10.0 mi WSW 5.8 mph - N/A   Overcast
6:53 PM 70.0 °F 53.1 °F 55% 30.08 in 10.0 mi SW 5.8 mph - N/A   Partly Cloudy
8:53 PM 66.9 °F 55.9 °F 68% 30.11 in 10.0 mi SW 8.1 mph - N/A   Clear
9:53 PM 66.0 °F 55.9 °F 70% 30.12 in 10.0 mi WSW 5.8 mph - N/A   Clear
10:53 PM 64.9 °F 55.9 °F 73% 30.12 in 10.0 mi SSW 6.9 mph - N/A   Clear
11:53 PM 64.0 °F 55.9 °F 75% 30.12 in 10.0 mi SSW 8.1 mph - N/A   Clear